• In Hungary
  • List of Countries
  • For 7 days
  • Water Temperature
  • Satellite Maps
  • Weather Map
  • News
  • Weather Widgets
  • user-avatar
    Login

    Hourly Weather Sarnowka

    Today, 22 October, Sunday

    Time Temperature Precipitation Wind Pressure Humidity
    00:00 +11°C° 0 mm 1 mps 754 mmHg 91%
    01:00 +11°C° 0 mm 1 mps 754 mmHg 91%
    02:00 +9°C° 0 mm 2 mps 753 mmHg 92%
    03:00 +9°C° 0 mm 2 mps 753 mmHg 93%
    04:00 +9°C° 0 mm 2 mps 753 mmHg 93%
    05:00 +9°C° 0 mm 2 mps 753 mmHg 94%
    06:00 +9°C° 0 mm 3 mps 752 mmHg 94%
    07:00 +9°C° 0 mm 3 mps 752 mmHg 94%
    08:00 +9°C° 0.1 mm 3 mps 752 mmHg 91%
    09:00 +10°C° 0.1 mm 3 mps 752 mmHg 87%
    10:00 +11°C° 0.1 mm 4 mps 752 mmHg 83%
    11:00 +11°C° 0.3 mm 4 mps 752 mmHg 83%
    12:00 +11°C° 0.3 mm 4 mps 752 mmHg 83%
    13:00 +11°C° 0.3 mm 4 mps 752 mmHg 83%
    14:00 +11°C° 0.7 mm 3 mps 751 mmHg 85%
    15:00 +10°C° 0.7 mm 3 mps 751 mmHg 87%
    16:00 +10°C° 0.7 mm 3 mps 751 mmHg 90%
    17:00 +10°C° 0.3 mm 2 mps 751 mmHg 91%
    18:00 +10°C° 0.3 mm 2 mps 751 mmHg 92%
    19:00 +10°C° 0.3 mm 2 mps 751 mmHg 93%
    20:00 +10°C° 0.2 mm 2 mps 751 mmHg 93%
    21:00 +10°C° 0.2 mm 2 mps 751 mmHg 93%
    22:00 +9°C° 0.2 mm 2 mps 751 mmHg 94%
    23:00 +9°C° 0 mm 2 mps 751 mmHg 94%

    Tomorrow, 23 October, Monday

    Time Temperature Precipitation Wind Pressure Humidity
    00:00 +9°C° 0 mm 2 mps 751 mmHg 94%
    01:00 +9°C° 0 mm 2 mps 751 mmHg 94%
    02:00 +8°C° 0 mm 2 mps 751 mmHg 94%
    03:00 +8°C° 0 mm 2 mps 751 mmHg 93%
    04:00 +8°C° 0 mm 2 mps 751 mmHg 93%
    05:00 +8°C° 0 mm 2 mps 751 mmHg 92%
    06:00 +8°C° 0 mm 2 mps 751 mmHg 92%
    07:00 +7°C° 0 mm 2 mps 751 mmHg 92%
    08:00 +8°C° 0 mm 2 mps 751 mmHg 88%
    09:00 +9°C° 0 mm 2 mps 752 mmHg 84%
    10:00 +10°C° 0 mm 2 mps 752 mmHg 81%
    11:00 +10°C° 0 mm 2 mps 752 mmHg 78%
    12:00 +12°C° 0 mm 2 mps 752 mmHg 76%
    13:00 +13°C° 0 mm 2 mps 752 mmHg 73%
    14:00 +12°C° 0 mm 2 mps 752 mmHg 75%
    15:00 +12°C° 0 mm 2 mps 752 mmHg 77%
    16:00 +12°C° 0 mm 2 mps 753 mmHg 79%
    17:00 +10°C° 0 mm 2 mps 753 mmHg 81%
    18:00 +10°C° 0 mm 2 mps 753 mmHg 84%
    19:00 +9°C° 0 mm 2 mps 754 mmHg 86%
    20:00 +9°C° 0 mm 2 mps 754 mmHg 87%
    21:00 +8°C° 0 mm 2 mps 755 mmHg 89%
    22:00 +8°C° 0 mm 2 mps 755 mmHg 90%
    23:00 +9°C° 0 mm 1 mps 756 mmHg 91%

    Day after tomorrow, 24 October, Tuesday

    Time Temperature Precipitation Wind Pressure Humidity
    00:00 +9°C° 0 mm 1 mps 756 mmHg 92%
    01:00 +9°C° 0 mm 1 mps 756 mmHg 93%
    02:00 +8°C° 0 mm 1 mps 757 mmHg 93%
    03:00 +8°C° 0 mm 1 mps 757 mmHg 94%
    04:00 +7°C° 0 mm 1 mps 757 mmHg 94%
    05:00 +8°C° 0 mm 1 mps 758 mmHg 94%
    06:00 +8°C° 0 mm 1 mps 758 mmHg 93%
    07:00 +8°C° 0 mm 1 mps 758 mmHg 92%
    08:00 +8°C° 0 mm 1 mps 759 mmHg 89%
    09:00 +9°C° 0 mm 1 mps 759 mmHg 86%
    10:00 +10°C° 0 mm 1 mps 759 mmHg 82%
    11:00 +10°C° 0 mm 1 mps 760 mmHg 79%
    12:00 +11°C° 0 mm 1 mps 760 mmHg 76%
    13:00 +11°C° 0 mm 1 mps 760 mmHg 73%
    14:00 +11°C° 0 mm 1 mps 760 mmHg 74%
    15:00 +11°C° 0 mm 1 mps 760 mmHg 76%
    16:00 +11°C° 0 mm 1 mps 760 mmHg 77%
    17:00 +10°C° 0 mm 1 mps 760 mmHg 79%
    18:00 +8°C° 0 mm 2 mps 760 mmHg 82%
    19:00 +8°C° 0 mm 2 mps 761 mmHg 84%
    20:00 +8°C° 0 mm 2 mps 761 mmHg 85%
    21:00 +7°C° 0 mm 2 mps 761 mmHg 85%
    22:00 +7°C° 0 mm 2 mps 761 mmHg 86%
    23:00 +7°C° 0 mm 3 mps 761 mmHg 86%

    25 October, Wednesday

    Time Temperature Precipitation Wind Pressure Humidity
    00:00 +7°C° 0 mm 3 mps 760 mmHg 86%
    01:00 +7°C° 0 mm 3 mps 760 mmHg 86%
    02:00 +7°C° 0.1 mm 3 mps 760 mmHg 86%
    03:00 +7°C° 0.1 mm 3 mps 760 mmHg 85%
    04:00 +7°C° 0.1 mm 4 mps 760 mmHg 85%
    05:00 +7°C° 0.1 mm 4 mps 759 mmHg 85%
    06:00 +7°C° 0.1 mm 4 mps 759 mmHg 84%
    07:00 +7°C° 0.1 mm 5 mps 759 mmHg 84%
    08:00 +7°C° 0.1 mm 5 mps 759 mmHg 82%
    09:00 +8°C° 0.1 mm 6 mps 758 mmHg 81%
    10:00 +8°C° 0.1 mm 6 mps 758 mmHg 79%
    11:00 +8°C° 0.5 mm 6 mps 758 mmHg 81%
    12:00 +8°C° 0.5 mm 6 mps 758 mmHg 83%
    13:00 +8°C° 0.5 mm 6 mps 757 mmHg 85%
    14:00 +9°C° 0.3 mm 5 mps 757 mmHg 86%
    15:00 +10°C° 0.3 mm 5 mps 756 mmHg 88%
    16:00 +10°C° 0.3 mm 5 mps 756 mmHg 89%
    17:00 +12°C° 0 mm 5 mps 756 mmHg 89%
    18:00 +12°C° 0 mm 5 mps 756 mmHg 89%
    19:00 +13°C° 0 mm 5 mps 755 mmHg 89%
    20:00 +13°C° 0.2 mm 5 mps 755 mmHg 89%
    21:00 +13°C° 0.2 mm 6 mps 755 mmHg 89%
    22:00 +13°C° 0.2 mm 6 mps 755 mmHg 88%
    23:00 +13°C° 0.1 mm 6 mps 756 mmHg 89%

    26 October, Thursday

    Time Temperature Precipitation Wind Pressure Humidity
    00:00 +13°C° 0.1 mm 6 mps 756 mmHg 89%
    01:00 +13°C° 0.1 mm 5 mps 756 mmHg 89%
    02:00 +13°C° 0 mm 5 mps 756 mmHg 90%
    03:00 +12°C° 0 mm 5 mps 756 mmHg 91%
    04:00 +12°C° 0 mm 5 mps 756 mmHg 92%
    05:00 +12°C° 0 mm 5 mps 757 mmHg 92%
    06:00 +10°C° 0 mm 5 mps 757 mmHg 92%
    07:00 +10°C° 0 mm 5 mps 757 mmHg 92%
    08:00 +10°C° 0 mm 5 mps 757 mmHg 88%
    09:00 +11°C° 0 mm 6 mps 757 mmHg 84%
    10:00 +11°C° 0 mm 6 mps 758 mmHg 80%
    11:00 +11°C° 0 mm 6 mps 758 mmHg 79%
    12:00 +11°C° 0 mm 6 mps 757 mmHg 78%
    13:00 +11°C° 0 mm 6 mps 757 mmHg 77%
    14:00 +11°C° 0 mm 6 mps 757 mmHg 77%
    15:00 +12°C° 0 mm 5 mps 757 mmHg 77%
    16:00 +10°C° 0 mm 5 mps 757 mmHg 78%
    17:00 +11°C° 0 mm 4 mps 756 mmHg 79%
    18:00 +11°C° 0 mm 4 mps 756 mmHg 80%
    19:00 +11°C° 0 mm 4 mps 756 mmHg 82%
    20:00 +11°C° 0 mm 4 mps 756 mmHg 83%
    21:00 +11°C° 0 mm 4 mps 755 mmHg 84%
    22:00 +11°C° 0 mm 4 mps 755 mmHg 85%
    23:00 +11°C° 0.2 mm 4 mps 754 mmHg 86%

    27 October, Friday

    Time Temperature Precipitation Wind Pressure Humidity
    00:00 +11°C° 0.2 mm 4 mps 754 mmHg 88%
    01:00 +11°C° 0.2 mm 4 mps 753 mmHg 89%
    02:00 +11°C° 1.1 mm 4 mps 752 mmHg 90%
    03:00 +10°C° 1.1 mm 3 mps 752 mmHg 90%
    04:00 +10°C° 1.1 mm 3 mps 751 mmHg 91%
    05:00 +10°C° 0.6 mm 3 mps 750 mmHg 90%
    06:00 +10°C° 0.6 mm 3 mps 750 mmHg 90%
    07:00 +8°C° 0.6 mm 4 mps 750 mmHg 90%
    08:00 +10°C° 0.5 mm 4 mps 749 mmHg 89%
    09:00 +10°C° 0.5 mm 4 mps 749 mmHg 88%
    10:00 +9°C° 0.5 mm 5 mps 749 mmHg 87%
    11:00 +9°C° 0.9 mm 5 mps 748 mmHg 86%
    12:00 +9°C° 0.9 mm 6 mps 748 mmHg 86%
    13:00 +8°C° 0.9 mm 6 mps 748 mmHg 86%
    14:00 +9°C° 0.3 mm 6 mps 748 mmHg 83%
    15:00 +9°C° 0.3 mm 6 mps 747 mmHg 81%
    16:00 +9°C° 0.3 mm 6 mps 747 mmHg 79%
    17:00 +8°C° 0 mm 6 mps 747 mmHg 80%
    18:00 +8°C° 0 mm 6 mps 747 mmHg 81%
    19:00 +8°C° 0 mm 6 mps 747 mmHg 82%
    20:00 +8°C° 0 mm 7 mps 746 mmHg 82%
    21:00 +8°C° 0 mm 7 mps 746 mmHg 81%
    22:00 +7°C° 0 mm 8 mps 746 mmHg 81%
    23:00 +7°C° 0.1 mm 8 mps 746 mmHg 81%
    Show more